Flag Weather past 2 weeks in Austin, Texas, U.S.A.

Now
53 °F

Clear.


Feels Like: 50 °F
Forecast: 46 / 62 °F
Wind: 10 mph from North

Location: Camp Mabry / Austin City

Current Time: Nov 24, 2014 at 2:31:47 AM

Latest Report: Nov 24, 2014 at 1:51 AM


Visibility: 10 mi

Pressure: 29.88 "Hg

Humidity: 52%

Dew point: 36 °F

Location of AustinLocation

Historic Weather in Austin — Graph

°F

Austin temperature yesterday

Maximum temperature yesterday: 80 °F (at 1:51 PM)
Minimum temperature yesterday: 54 °F (at 5:51 AM)
Average temperature yesterday: 65 °F

Past Weeks' High & Low Weather Summary

 TemperatureHumidityPressure
High80 °F (Nov 23, 1:51 PM)100% (Nov 15, 9:51 PM)30.58 "Hg (Nov 15, 9:51 PM)
Low30 °F (Nov 17, 4:51 AM)23% (Nov 17, 3:51 PM)29.51 "Hg (Nov 23, 1:51 PM)
Average51 °F67%30.14 "Hg
* Reported Nov 9 12:51 AM — Nov 24 12:51 AM, Austin, Weather by CustomWeather, © 2014

Note: Actual official high and low records may vary slightly from our data, if they occured in-between our weather recording intervals... More about our weather records

Advertising

Austin weather history for previous 24 hours

 ConditionsComfort  
Time TempWeatherWind HumidityBarometerVisibility
12:51 AM
Nov 24
54 °FClear.12 mph57%29.87 "Hg10 mi
11:51 PM
Nov 23
57 °FClear.14 mph51%29.84 "Hg10 mi
10:51 PM61 °FClear.13 mph48%29.80 "Hg10 mi
9:51 PM64 °FClear.10 mph41%29.74 "Hg10 mi
8:51 PM65 °FClear.14 mph45%29.70 "Hg10 mi
7:51 PM63 °FClear.3 mph54%29.65 "Hg10 mi
6:51 PM70 °FClear.3 mph37%29.61 "Hg10 mi
5:51 PM72 °FClear.No wind34%29.57 "Hg10 mi
4:51 PM76 °FSunny.5 mph30%29.53 "Hg10 mi
3:51 PM80 °FSunny.12 mph23%29.51 "Hg10 mi
2:51 PM80 °FSunny.6 mph24%29.51 "Hg10 mi
1:51 PM80 °FSunny.9 mph24%29.51 "Hg10 mi
12:51 PM79 °FSunny.12 mph28%29.54 "Hg10 mi
11:51 AM77 °FSunny.8 mph32%29.59 "Hg10 mi
10:51 AM73 °FSunny.No wind51%29.63 "Hg10 mi
9:51 AM67 °FSunny.5 mph71%29.65 "Hg10 mi
8:51 AM62 °FSunny.3 mph80%29.66 "Hg10 mi
7:51 AM55 °FSunny.No wind96%29.66 "Hg10 mi
6:51 AM54 °FClear.No wind97%29.67 "Hg10 mi
5:51 AM54 °FClear.No wind100%29.65 "Hg10 mi
4:51 AM55 °FClear.No wind100%29.67 "Hg10 mi
3:51 AM56 °FClear.No wind100%29.68 "Hg10 mi
2:51 AM57 °FClear.No wind96%29.67 "Hg10 mi
Weather by CustomWeather, © 2014

See weather overviewHow to use our weather pages